Regional Weather Roundup
Issued by NWS

Home | Current Version | Previous Version | Text Only | Print | Product List | Glossary On
Versions: 1 2 3 4 5 6 7 8 9 10 11 12 13 14 15 16 17 18 19 20 21 22 23 24 25 26 27 28 29 30 31 32 33 34 35 36 37 38 39 40 41 42 43 44 45 46 47 48 49 50
000
ASCA44 KEWX 290920
RWRMX

LATIN AMERICA AND CARIBBEAN REGIONAL WEATHER ROUNDUP
NATIONAL WEATHER SERVICE AUSTIN/SAN ANTONIO TX
300 AM CST MON DEC 29 2014

NOTE: "FAIR" INDICATED FEW OR NO CLOUDS BELOW 12,000 FEET WITH NO
SIGNIFICANT WEATHER AND/OR OBSTRUCTIONS TO VISIBILITY.

BAJA CALIFORNIA

CITY           SKY/WX    TMP DP  RH WIND       PRES   REMARKS
TIJUANA        CLEAR     46  32  57 E7        30.18F WCI  43

NORTHWESTERN MEXICO

CITY           SKY/WX    TMP DP  RH WIND       PRES   REMARKS

NORTHEASTERN MEXICO

CITY           SKY/WX    TMP DP  RH WIND       PRES   REMARKS
MATAMOROS      CLOUDY    46  46 100 W5        30.18F WCI  44
MONTERREY      CLOUDY    41  41 100 CALM      30.14S
REYNOSA        CLOUDY    43  41  93 NW2       30.17S

WESTERN MEXICO

CITY           SKY/WX    TMP DP  RH WIND       PRES   REMARKS
DEL BAJIO      PTCLDY    48  39  71 N2        30.30S
GUADALAJARA    CLEAR     48  45  87 CALM      30.20S
MAZATLAN       CLEAR     52  48  87 N9        29.96F
P. VALLARTA    PTCLDY    70  68  94 CALM      29.96F

CENTRAL MEXICO

CITY           SKY/WX    TMP DP  RH WIND       PRES   REMARKS
MEXICO CITY    CLEAR     52  41  66 CALM      30.31F
MORELIA        CLEAR     45  41  87 CALM      30.24F
QUERETARO      CLEAR     45  37  76 W5        30.30F WCI  42
S. LUIS POTOSI FOG       48  48 100 CALM      30.24F VSB 1/8
TOLUCA         PTCLDY    39  37  93 SW3       30.38F

SOUTHERN MEXICO

CITY           SKY/WX    TMP DP  RH WIND       PRES   REMARKS
ACAPULCO       PTCLDY    73  70  88 N6        29.90F
VERACRUZ       PTCLDY    70  63  78 N12       30.05F

YUCATAN PENINSULA

CITY           SKY/WX    TMP DP  RH WIND       PRES   REMARKS
CANCUN         CLEAR     77  73  88 E6        30.04S
COZUMEL        CLEAR     70  70 100 CALM      30.03S
MERIDA         PTCLDY    72  72 100 E5        30.01F
TAPACHULA      CLEAR     73  72  94 CALM      29.89F

CENTRAL AMERICA

CITY           SKY/WX    TMP DP  RH WIND       PRES   REMARKS
MANAGUA        MOSUNNY   75  72  88 CALM      29.86F

CARIBBEAN

CITY           SKY/WX    TMP DP  RH WIND       PRES   REMARKS
ARUBA          PTCLDY    79  73  83 E21       29.89S
CURACAO        PTCLDY    79  73  83 E14       29.94R
KINGSTON       PTCLDY    77  70  78 NW6       29.97S
NASSAU         PTCLDY    72  68  88 CALM      30.16R
SAN JUAN       PTCLDY    73  72  94 CALM      30.05R
SANTO DOMINGO  MOCLDY    70  68  94 CALM      30.03S
ST. CROIX      CLEAR     75  68  78 E10       30.04
ST. THOMAS     CLEAR     75  72  88 E6        30.04

$$




USA.gov is the U.S. government's official web portal to all federal, state and local government web resources and services.